Hourly Weather Bol'shoe

Today, 2 August, Monday

Time Temperature Precipitation Wind Pressure Humidity
00:00 +24°C° 0 mm 1 mps 740 mmHg 51%
01:00 +24°C° 0 mm 1 mps 740 mmHg 52%
02:00 +23°C° 0 mm 1 mps 740 mmHg 53%
03:00 +23°C° 0 mm 1 mps 740 mmHg 54%
04:00 +23°C° 0 mm 1 mps 740 mmHg 55%
05:00 +23°C° 0 mm 1 mps 740 mmHg 55%
06:00 +24°C° 0 mm 1 mps 740 mmHg 56%
07:00 +26°C° 0 mm 1 mps 740 mmHg 52%
08:00 +28°C° 0 mm 2 mps 740 mmHg 47%
09:00 +30°C° 0 mm 2 mps 740 mmHg 42%
10:00 +31°C° 0 mm 3 mps 740 mmHg 39%
11:00 +34°C° 0 mm 4 mps 739 mmHg 36%
12:00 +35°C° 0 mm 4 mps 739 mmHg 33%
13:00 +35°C° 0 mm 5 mps 739 mmHg 31%
14:00 +36°C° 0 mm 5 mps 739 mmHg 29%
15:00 +36°C° 0 mm 5 mps 738 mmHg 27%
16:00 +36°C° 0 mm 5 mps 738 mmHg 28%
17:00 +35°C° 0 mm 4 mps 737 mmHg 28%
18:00 +35°C° 0 mm 4 mps 737 mmHg 29%
19:00 +33°C° 0 mm 4 mps 737 mmHg 34%
20:00 +30°C° 0 mm 4 mps 737 mmHg 38%
21:00 +27°C° 0 mm 4 mps 737 mmHg 42%
22:00 +25°C° 0 mm 3 mps 737 mmHg 52%
23:00 +24°C° 0 mm 2 mps 738 mmHg 61%

Tomorrow, 3 August, Tuesday

Time Temperature Precipitation Wind Pressure Humidity
00:00 +21°C° 0 mm 2 mps 738 mmHg 70%
01:00 +20°C° 0.1 mm 2 mps 738 mmHg 74%
02:00 +20°C° 0.1 mm 2 mps 738 mmHg 77%
03:00 +20°C° 0.1 mm 3 mps 739 mmHg 81%
04:00 +20°C° 0.5 mm 3 mps 739 mmHg 85%
05:00 +20°C° 0.5 mm 3 mps 739 mmHg 88%
06:00 +20°C° 0.5 mm 3 mps 739 mmHg 92%
07:00 +21°C° 0.4 mm 3 mps 739 mmHg 84%
08:00 +24°C° 0.4 mm 3 mps 739 mmHg 77%
09:00 +25°C° 0.4 mm 3 mps 739 mmHg 69%
10:00 +27°C° 0 mm 3 mps 739 mmHg 62%
11:00 +28°C° 0 mm 4 mps 739 mmHg 54%
12:00 +30°C° 0 mm 4 mps 740 mmHg 46%
13:00 +30°C° 0 mm 4 mps 739 mmHg 44%
14:00 +32°C° 0 mm 4 mps 739 mmHg 41%
15:00 +32°C° 0 mm 4 mps 739 mmHg 39%
16:00 +30°C° 0 mm 4 mps 739 mmHg 41%
17:00 +29°C° 0 mm 4 mps 739 mmHg 43%
18:00 +28°C° 0 mm 4 mps 739 mmHg 45%
19:00 +26°C° 0 mm 4 mps 739 mmHg 52%
20:00 +24°C° 0 mm 3 mps 740 mmHg 58%
21:00 +21°C° 0 mm 3 mps 740 mmHg 64%
22:00 +20°C° 0 mm 3 mps 741 mmHg 66%
23:00 +19°C° 0 mm 2 mps 741 mmHg 68%

Day after tomorrow, 4 August, Wednesday

Time Temperature Precipitation Wind Pressure Humidity
00:00 +19°C° 0 mm 2 mps 741 mmHg 70%
01:00 +18°C° 0 mm 2 mps 741 mmHg 70%
02:00 +18°C° 0 mm 2 mps 742 mmHg 71%
03:00 +17°C° 0 mm 2 mps 742 mmHg 71%
04:00 +18°C° 0 mm 2 mps 742 mmHg 71%
05:00 +18°C° 0 mm 2 mps 742 mmHg 71%
06:00 +18°C° 0 mm 2 mps 743 mmHg 71%
07:00 +20°C° 0 mm 2 mps 743 mmHg 62%
08:00 +23°C° 0 mm 2 mps 743 mmHg 53%
09:00 +25°C° 0 mm 2 mps 743 mmHg 44%
10:00 +26°C° 0 mm 3 mps 744 mmHg 40%
11:00 +27°C° 0 mm 3 mps 744 mmHg 35%
12:00 +28°C° 0 mm 3 mps 744 mmHg 31%
13:00 +29°C° 0 mm 3 mps 743 mmHg 30%
14:00 +29°C° 0 mm 3 mps 743 mmHg 29%
15:00 +30°C° 0 mm 3 mps 743 mmHg 28%
16:00 +29°C° 0 mm 3 mps 743 mmHg 29%
17:00 +28°C° 0 mm 4 mps 743 mmHg 31%
18:00 +28°C° 0 mm 4 mps 743 mmHg 33%
19:00 +26°C° 0 mm 3 mps 743 mmHg 36%
20:00 +24°C° 0 mm 3 mps 743 mmHg 40%
21:00 +21°C° 0 mm 2 mps 744 mmHg 44%
22:00 +20°C° 0 mm 2 mps 744 mmHg 44%
23:00 +19°C° 0 mm 2 mps 744 mmHg 44%

5 August, Thursday

Time Temperature Precipitation Wind Pressure Humidity
00:00 +20°C° 0 mm 1 mps 744 mmHg 45%
01:00 +19°C° 0 mm 1 mps 744 mmHg 46%
02:00 +19°C° 0 mm 1 mps 744 mmHg 48%
03:00 +18°C° 0 mm 1 mps 744 mmHg 49%
04:00 +18°C° 0 mm 1 mps 744 mmHg 50%
05:00 +18°C° 0 mm 1 mps 744 mmHg 52%
06:00 +19°C° 0 mm 1 mps 744 mmHg 53%
07:00 +21°C° 0 mm 1 mps 745 mmHg 47%
08:00 +23°C° 0 mm 2 mps 745 mmHg 42%
09:00 +26°C° 0 mm 2 mps 745 mmHg 37%
10:00 +27°C° 0 mm 1 mps 745 mmHg 34%
11:00 +28°C° 0 mm 1 mps 744 mmHg 31%
12:00 +30°C° 0 mm 1 mps 744 mmHg 28%
13:00 +30°C° 0 mm 1 mps 744 mmHg 28%
14:00 +31°C° 0 mm 1 mps 744 mmHg 27%
15:00 +31°C° 0 mm 1 mps 744 mmHg 26%
16:00 +31°C° 0 mm 1 mps 743 mmHg 28%
17:00 +30°C° 0 mm 1 mps 743 mmHg 30%
18:00 +30°C° 0 mm 1 mps 743 mmHg 31%
19:00 +28°C° 0 mm 1 mps 743 mmHg 33%
20:00 +27°C° 0 mm 2 mps 743 mmHg 35%
21:00 +26°C° 0 mm 2 mps 743 mmHg 37%
22:00 +25°C° 0 mm 2 mps 743 mmHg 38%
23:00 +24°C° 0 mm 2 mps 742 mmHg 40%

6 August, Friday

Time Temperature Precipitation Wind Pressure Humidity
00:00 +22°C° 0 mm 3 mps 742 mmHg 41%
01:00 +21°C° 0 mm 3 mps 742 mmHg 42%
02:00 +21°C° 0 mm 2 mps 742 mmHg 43%
03:00 +20°C° 0 mm 2 mps 742 mmHg 44%
04:00 +20°C° 0 mm 2 mps 742 mmHg 45%
05:00 +20°C° 0 mm 2 mps 742 mmHg 46%
06:00 +19°C° 0 mm 2 mps 742 mmHg 48%
07:00 +22°C° 0 mm 3 mps 742 mmHg 43%
08:00 +25°C° 0 mm 3 mps 742 mmHg 38%
09:00 +28°C° 0 mm 3 mps 742 mmHg 32%
10:00 +29°C° 0 mm 4 mps 742 mmHg 30%
11:00 +32°C° 0 mm 4 mps 742 mmHg 27%
12:00 +33°C° 0 mm 4 mps 742 mmHg 24%
13:00 +34°C° 0 mm 4 mps 742 mmHg 23%
14:00 +34°C° 0 mm 5 mps 741 mmHg 22%
15:00 +34°C° 0 mm 5 mps 741 mmHg 22%
16:00 +34°C° 0 mm 5 mps 741 mmHg 23%
17:00 +33°C° 0 mm 4 mps 741 mmHg 25%
18:00 +33°C° 0 mm 4 mps 741 mmHg 27%
19:00 +30°C° 0 mm 4 mps 741 mmHg 30%
20:00 +28°C° 0 mm 3 mps 741 mmHg 33%
21:00 +26°C° 0 mm 3 mps 741 mmHg 35%
22:00 +25°C° 0 mm 4 mps 741 mmHg 36%
23:00 +25°C° 0 mm 5 mps 741 mmHg 36%

7 August, Saturday

Time Temperature Precipitation Wind Pressure Humidity
00:00 +25°C° 0 mm 5 mps 741 mmHg 36%
01:00 +23°C° 0 mm 5 mps 741 mmHg 37%
02:00 +22°C° 0 mm 5 mps 741 mmHg 39%
03:00 +22°C° 0 mm 5 mps 740 mmHg 40%
04:00 +21°C° 0 mm 5 mps 740 mmHg 41%
05:00 +21°C° 0 mm 5 mps 741 mmHg 42%
06:00 +20°C° 0 mm 4 mps 741 mmHg 42%
07:00 +23°C° 0 mm 5 mps 741 mmHg 38%
08:00 +26°C° 0 mm 6 mps 741 mmHg 34%
09:00 +28°C° 0 mm 6 mps 741 mmHg 30%
10:00 +29°C° 0 mm 6 mps 741 mmHg 30%
11:00 +30°C° 0 mm 6 mps 741 mmHg 29%
12:00 +30°C° 0 mm 5 mps 741 mmHg 29%
13:00 +33°C° 0 mm 5 mps 741 mmHg 27%
14:00 +34°C° 0 mm 5 mps 741 mmHg 25%
15:00 +35°C° 0 mm 5 mps 741 mmHg 23%
16:00 +35°C° 0 mm 4 mps 741 mmHg 25%
17:00 +34°C° 0 mm 4 mps 741 mmHg 26%
18:00 +34°C° 0 mm 4 mps 740 mmHg 27%
19:00 +33°C° 0 mm 4 mps 741 mmHg 29%
20:00 +30°C° 0 mm 4 mps 741 mmHg 30%
21:00 +29°C° 0 mm 3 mps 741 mmHg 31%
22:00 +28°C° 0 mm 4 mps 742 mmHg 31%
23:00 +28°C° 0 mm 5 mps 742 mmHg 31%
Show more

We Need Your Consent

Meteoprog and our Service Providers may store and access personal data such as cookies, device identifiers or other similar technologies on your device and process such data to personalise content and ads, as well as provide social media features and to analyse the traffic.

  • Store and/or access information on your device

    Cookies, device identifiers or other information can be stored or accessed on your device for the purposes indicated above.

  • Personalised ads and content, ad and content measurement, audience insights, and products development

    Ads and content can be personalised based on a profile. More data can be added to better personalise ads and content. Ad and content performance can be measured. Insights about the audience who saw the ads and content can be derived. Such data can be used to develop or improve user’s experience, systems and software.

By clicking ‘I Agree’ you will allow the use of indicated cookies, device identifiers, web beacons or other similar technologies. Your settings can be changed in the browser on your device.

For certain purposes, legitimate interests may be relied on, rather than consent. You can read more about this in our Privacy and Cookie Policy.